| time (UTC) | temp C | wind direction | speed KPH | gust KPH | rain 1hr cm | rain 24hr cm | rain mn cm | humidity % | barometer mb |
| 20260506202003 | 16 | 185 | 14.5 | 30.6 | 0.00 | 0.00 | 0.00 | 67 | 1009.9 |
| 20260506200003 | 16 | 182 | 14.5 | 29.0 | 0.00 | 0.00 | 0.00 | 65 | 1010.0 |
| 20260506194003 | 17 | 177 | 14.5 | 33.8 | 0.00 | 0.00 | 0.00 | 64 | 1009.9 |
| 20260506192003 | 17 | 185 | 11.3 | 27.4 | 0.00 | 0.00 | 0.00 | 62 | 1010.0 |
| 20260506190003 | 17 | 195 | 14.5 | 29.0 | 0.00 | 0.00 | 0.00 | 61 | 1009.8 |
| 20260506184003 | 17 | 186 | 12.9 | 30.6 | 0.00 | 0.00 | 0.00 | 60 | 1009.4 |
| 20260506182003 | 18 | 189 | 11.3 | 30.6 | 0.00 | 0.00 | 0.00 | 59 | 1009.5 |
| 20260506180004 | 18 | 176 | 8.0 | 20.9 | 0.00 | 0.00 | 0.00 | 58 | 1009.6 |
| 20260506174003 | 19 | 171 | 11.3 | 27.4 | 0.00 | 0.00 | 0.00 | 56 | 1009.4 |
| 20260506172003 | 20 | 176 | 14.5 | 35.4 | 0.00 | 0.00 | 0.00 | 55 | 1009.6 |
| 20260506170003 | 20 | 148 | 11.3 | 30.6 | 0.00 | 0.00 | 0.00 | 54 | 1009.4 |
| 20260506164003 | 20 | 155 | 11.3 | 29.0 | 0.00 | 0.00 | 0.00 | 53 | 1009.7 |
| 20260506162003 | 20 | 195 | 11.3 | 30.6 | 0.00 | 0.00 | 0.00 | 53 | 1010.1 |
| 20260506160003 | 20 | 149 | 11.3 | 29.0 | 0.00 | 0.00 | 0.00 | 54 | 1010.6 |
| 20260506154003 | 20 | 190 | 16.1 | 35.4 | 0.00 | 0.00 | 0.00 | 53 | 1010.8 |
| 20260506152003 | 20 | 177 | 16.1 | 35.4 | 0.00 | 0.00 | 0.00 | 54 | 1010.8 |
| 20260506150003 | 20 | 185 | 12.9 | 30.6 | 0.00 | 0.00 | 0.00 | 56 | 1010.7 |
| 20260506144003 | 20 | 182 | 12.9 | 29.0 | 0.00 | 0.00 | 0.00 | 58 | 1010.9 |
| 20260506040545 | 10 | 281 | 3.2 | 9.7 | 0.00 | 0.00 | 0.00 | 85 | 1011.1 |
| 20260506034545 | 10 | 335 | 0.0 | 1.6 | 0.00 | 0.00 | 0.00 | 84 | 1011.1 |
| 20260506032545 | 10 | 297 | 1.6 | 4.8 | 0.00 | 0.00 | 0.00 | 82 | 1011.1 |
| 20260506030545 | 10 | 317 | 1.6 | 4.8 | 0.00 | 0.00 | 0.00 | 82 | 1011.4 |
| 20260506024545 | 11 | 336 | 1.6 | 4.8 | 0.00 | 0.00 | 0.00 | 81 | 1010.9 |
| 20260506022545 | 11 | 280 | 3.2 | 6.4 | 0.00 | 0.00 | 0.00 | 80 | 1010.7 |
| 20260506020545 | 11 | 315 | 1.6 | 4.8 | 0.00 | 0.00 | 0.00 | 78 | 1010.9 |
| 20260506014545 | 12 | 277 | 3.2 | 9.7 | 0.00 | 0.00 | 0.00 | 77 | 1010.7 |
| 20260506012545 | 12 | 304 | 1.6 | 4.8 | 0.00 | 0.00 | 0.00 | 77 | 1010.7 |
| 20260506010545 | 12 | 262 | 3.2 | 9.7 | 0.00 | 0.00 | 0.00 | 75 | 1010.5 |
| 20260506004545 | 12 | 195 | 6.4 | 12.9 | 0.00 | 0.00 | 0.00 | 74 | 1010.6 |